Location: Newark
(23.3970°S, 47.6010°W)
Time: 18:17:18
(UTC+00:00)

deb Explorer IX - Pass Details

Date: 26 February 2020
Orbit: 547 x 1100 km, 38.8° (Epoch: 02 April)

Event Time Altitude Azimuth Distance (km) Brightness Sun altitude
Rises 23:27:50 0° 278° (W) 3,329 ? -24.2°
Reaches altitude 10° 23:30:22 10° 269° (W) 2,488 ? -24.7°
Maximum altitude 23:35:56 38° 202° (SSW) 1,413 ? -25.9°
Enters shadow 23:40:57 15° 141° (SE) 2,424 ? -27.0°
Drops below altitude 10° 23:42:16 10° 135° (SE) 2,836 - -27.2°
Sets 23:45:21 0° 127° (SE) 3,850 - -27.9°
